Weather in Cheremushskiy

Russia / Arkhangel'skaya Oblast'     61°16′15″N   47°15′49″E
temp.,
°C
wind,
m/s
gust,
m/s
humid.,
%
clouds,
%
prec.,
mm/h
press.,
hPa
HPBL,
m
11 april, sun
sun1100:00+1s414885 0.0 1023438
03:000ssw414875 0.0 1022431
06:00+1ssw5158348 0.0 1021449
09:00+4sw5128077 0.0 1022782
12:00+6wsw49689 0.1 10241521
15:00+8wsw48595 0.1 10261582
18:00+5wsw410701 0.0 1027391
21:00+3wsw413780 0.0 1029425
12 april, mon
mon1200:00+2wsw414820 0.0 1032485
03:000wsw310902 0.0 1034256
06:000sw39875 0.0 1036253
09:00+6wsw36610 0.0 1037581
12:00+8wsw46455 0.0 10371141
15:00+10sw454248 0.0 10371262
18:00+7ssw396258 0.0 1036298
21:00+5ssw4127271 0.0 1036371
13 april, tue
tue1300:00+4ssw4137565 0.0 1035328
03:00+3ssw3128898 0.0 1034281
06:00+4s31288100 0.0 1033334
09:00+7s51179100 0.0 1030467
12:00+9s41182100 0.3 1028555
15:00+12ssw51275100 0.3 1025851
18:00+11sw41282100 0.0 1024726
21:00+9ssw3994100 0.0 1024242
14 april, wed
wed1400:00+9ssw3109390 0.0 1024275
03:00+8ssw3109598 0.0 1023252
06:00+8ssw31092100 0.0 1022287
09:00+12ssw41067100 0.0 1021506
12:00+16sw5105382 0.0 10201049
15:00+17sw51149100 0.0 10181844
18:00+15sw5115470 0.0 1017864
21:00+9nw4888100 0.1 1019490
15 april, thu
thu1500:00+5nnw4889100 2.8 1021549
03:00+3nnw1496100 6.2 1022349
06:00+2nw1398100 1.9 1022281
09:00+3nnw1395100 2.4 1022376
12:00+5wnw1281100 0.4 1022575
15:00+5wnw1376100 1.1 1022665
18:00+5nw1271100 0.1 102143
21:00+2nw2680100 0.1 1022135